Location: Spangle
(47.4302°N, 117.3779°W)
Time: 12:11:33
(UTC+00:00)

ISS - Pass Details

Date: 23 April 2026
Orbit: 414 x 424 km, 51.6° (Epoch: 11 May)

Event Time Altitude Azimuth Distance (km) Brightness Sun altitude
Exits shadow 12:01:43 10° 255° (WSW) 1,511 -1.6 -7.7°
Reaches altitude 10° 12:01:45 10° 255° (WSW) 1,497 -1.6 -7.7°
Maximum altitude 12:05:06 68° 340° (NNW) 455 -3.6 -7.2°
Drops below altitude 10° 12:08:29 10° 64° (ENE) 1,509 0.9 -6.7°
Sets 12:10:36 0° 67° (ENE) 2,377 2.8 -6.4°
